Monticello, AR

6:57 PM CDT on August 22, 2017 (GMT -0500)
Monticello Municipal-Ellis

Weather History for KLLQ - March, 2013

Change the Weather History Date:

Sunday, March 24, 2013

  Actual Average Record
Temperature  
Mean Temperature 44 °F -  
Max Temperature 51 °F 66 °F 84 °F (1954)
Min Temperature 37 °F 42 °F 28 °F (1966)
Degree Days  
Heating Degree Days 21    
Moisture  
Dew Point 40 °F    
Average Humidity 79    
Maximum Humidity 100    
Minimum Humidity 48    
Precipitation  
Precipitation 0.01 in - - ()
Sea Level Pressure  
Sea Level Pressure 29.77 in    
Wind  
Wind Speed 7 mph (WNW)    
Max Wind Speed 25 mph    
Max Gust Speed 37 mph    
Visibility 6 miles    
Events Fog , Rain    
Averages and records for this station are not official NWS values.
T = Trace of Precipitation, MM = Missing Value Source: NWS Daily Summary

Daily Weather History Graph

Daily Weather History Graph

Search for Another Location

Airport or City:

Trip Planner

Search our weather history database for the weather conditions in past years. The results will help you decide how hot, cold, wet, or windy it might be!

Date:

Astronomy

Mar. 24, 2013 Rise Set
Actual Time 7:04 AM CDT 7:21 PM CDT
Civil Twilight 6:40 AM CDT 7:46 PM CDT
Nautical Twilight 6:10 AM CDT 8:15 PM CDT
Astronomical Twilight 5:41 AM CDT 8:45 PM CDT
Moon 4:56 PM CDT (3/24) 5:08 AM CDT (3/24)
Length of Visible Light 13h 06m
Length of Day
12h 16m
Waxing Gibbous, 92% of the Moon is Illuminated
Mar 24
Waxing Gibbous
Mar 27
Full
Apr 2
Last Quarter
Apr 10
New
Apr 18
First Quarter

Hourly Weather History & Observations

Time (CDT) Temp. Windchill Dew Point Humidity Pressure Visibility Wind Dir Wind Speed Gust Speed Precip Events Conditions
12:53 AM 50.0 °F - 48.0 °F 93% 29.66 in 2.5 mi Calm Calm - N/A   Overcast
1:03 AM 50.0 °F - 48.2 °F 94% 29.66 in 3.0 mi Calm Calm - N/A   Overcast
1:11 AM 50.0 °F - 48.2 °F 94% 29.65 in 1.8 mi Calm Calm - N/A   Overcast
1:21 AM 50.0 °F - 48.2 °F 94% 29.65 in 0.5 mi Calm Calm - N/A Fog Fog
1:53 AM 50.0 °F - 48.0 °F 93% 29.65 in 0.5 mi Calm Calm - N/A Fog Fog
2:42 AM 50.0 °F - 48.2 °F 94% 29.64 in 0.2 mi Calm Calm - N/A Fog Fog
2:53 AM 50.0 °F - 48.0 °F 93% 29.65 in 0.2 mi Calm Calm - N/A Fog Fog
3:09 AM 50.0 °F - 48.2 °F 94% 29.67 in 0.5 mi WNW 8.1 mph - N/A Fog Fog
3:28 AM 50.0 °F - 48.2 °F 94% 29.70 in 1.0 mi WNW 9.2 mph 20.7 mph N/A   Mist
3:40 AM 48.2 °F - 48.2 °F 100% 29.70 in 0.8 mi WNW 9.2 mph - N/A   Mist
3:50 AM 48.2 °F - 48.2 °F 100% 29.69 in 1.0 mi WNW 6.9 mph - N/A   Mist
3:53 AM 48.9 °F - 48.0 °F 97% 29.70 in 1.0 mi WNW 9.2 mph - N/A   Mist
4:27 AM 48.2 °F - 48.2 °F 100% 29.64 in 0.8 mi Calm Calm - N/A   Mist
4:53 AM 48.9 °F - 48.0 °F 97% 29.67 in 0.8 mi WNW 4.6 mph - N/A   Mist
5:09 AM 48.2 °F - 46.4 °F 93% 29.72 in 1.0 mi WNW 9.2 mph - N/A   Mist
5:40 AM 48.2 °F - 46.4 °F 93% 29.69 in 3.0 mi WNW 6.9 mph - 0.01 in Rain Light Rain
5:53 AM 48.0 °F - 46.9 °F 96% 29.70 in 4.0 mi West 5.8 mph - 0.01 in   Overcast
6:53 AM 48.0 °F - 46.9 °F 96% 29.70 in 2.5 mi West 5.8 mph - N/A   Overcast
7:05 AM 48.2 °F - 46.4 °F 93% 29.70 in 4.0 mi WSW 8.1 mph - N/A   Overcast
7:53 AM 48.0 °F - 46.0 °F 93% 29.70 in 4.0 mi West 13.8 mph 18.4 mph N/A   Overcast
8:43 AM 48.2 °F - 46.4 °F 93% 29.72 in 10.0 mi West 19.6 mph 28.8 mph 0.00 in   Overcast
8:53 AM 48.9 °F - 45.0 °F 86% 29.73 in 10.0 mi West 11.5 mph 24.2 mph 0.00 in   Overcast
9:06 AM 48.2 °F - 46.4 °F 93% 29.73 in 10.0 mi West 9.2 mph 17.3 mph N/A   Overcast
9:25 AM 48.2 °F - 44.6 °F 87% 29.73 in 10.0 mi West 15.0 mph 25.3 mph 0.00 in   Overcast
9:34 AM 50.0 °F - 42.8 °F 76% 29.73 in 10.0 mi West 18.4 mph 26.5 mph 0.00 in   Mostly Cloudy
9:53 AM 51.1 °F - 43.0 °F 74% 29.74 in 10.0 mi West 15.0 mph 24.2 mph 0.00 in   Partly Cloudy
10:22 AM 48.2 °F - 39.2 °F 71% 29.75 in 10.0 mi West 16.1 mph 28.8 mph N/A   Overcast
10:53 AM 46.9 °F - 36.0 °F 66% 29.78 in 10.0 mi West 25.3 mph 35.7 mph N/A   Overcast
11:03 AM 46.4 °F 39.8 °F 35.6 °F 66% 29.78 in 10.0 mi West 16.1 mph 31.1 mph N/A   Overcast
11:37 AM 46.4 °F 38.3 °F 33.8 °F 62% 29.81 in 10.0 mi West 23.0 mph 31.1 mph N/A   Overcast
11:53 AM 45.0 °F 38.5 °F 33.1 °F 63% 29.82 in 10.0 mi West 13.8 mph 32.2 mph N/A   Overcast
12:53 PM 44.1 °F 36.5 °F 32.0 °F 63% 29.83 in 10.0 mi West 17.3 mph 25.3 mph N/A   Overcast
1:53 PM 46.0 °F 38.8 °F 30.9 °F 56% 29.85 in 10.0 mi WNW 18.4 mph 34.5 mph N/A   Overcast
2:53 PM 48.0 °F - 30.9 °F 52% 29.84 in 10.0 mi West 20.7 mph 28.8 mph N/A   Mostly Cloudy
3:53 PM 48.0 °F - 28.9 °F 48% 29.87 in 10.0 mi WNW 21.9 mph 36.8 mph N/A   Partly Cloudy
4:53 PM 46.9 °F - 28.0 °F 48% 29.90 in 10.0 mi WNW 20.7 mph 34.5 mph N/A   Mostly Cloudy
5:53 PM 45.0 °F 37.9 °F 28.0 °F 52% 29.93 in 10.0 mi WNW 16.1 mph 35.7 mph N/A   Mostly Cloudy
6:53 PM 43.0 °F 36.0 °F 27.0 °F 53% 29.96 in 10.0 mi WNW 13.8 mph 31.1 mph N/A   Mostly Cloudy
7:53 PM 41.0 °F 33.1 °F 27.0 °F 57% 30.00 in 10.0 mi WNW 15.0 mph 21.9 mph N/A   Clear
8:53 PM 39.9 °F 32.5 °F 27.0 °F 60% 30.02 in 10.0 mi WNW 12.7 mph 21.9 mph N/A   Partly Cloudy
9:53 PM 39.0 °F 32.8 °F 26.1 °F 60% 30.06 in 10.0 mi WNW 9.2 mph - N/A   Clear
10:53 PM 37.0 °F 32.4 °F 26.1 °F 65% 30.07 in 10.0 mi NW 5.8 mph - N/A   Clear
11:53 PM 37.0 °F 29.8 °F 24.1 °F 59% 30.09 in 10.0 mi NW 10.4 mph 21.9 mph N/A   Clear